User: anonymous   Login
Location: Caltech
(34.1382°N, 118.1253°W)
Time: 11:28:01
(UTC-07:00)
Language:

Cosmos 1975 - Orbit

View from above orbital plane
View from above orbital plane
View from above satellite
View from above satellite

Ground track
Ground track

The orbit data is extracted from the following two-line orbital elements,

1 19573U 88093A   16205.40450394  .00000556  00000-0  38349-4 0  9993
2 19573  82.5220 303.4775 0014010 344.7237  15.3564 15.03769761510398
Epoch (UTC): 23 July 2016 09:42:29
Eccentricity: 0.0014010
inclination: 82.5220°
perigee height: 545 km
apogee height: 565 km
right ascension of ascending node: 303.4775°
argument of perigee: 344.7237°
revolutions per day: 15.03769761
mean anomaly at epoch: 15.3564°
orbit number at epoch: 51039

The dashed part of the orbit path shows where the satellite is in the earth's shadow,  

DLR